Mitchell, SD

4:59 PM CDT on October 18, 2019 (GMT -0500)
Mitchell Municipal

Weather History for KMHE - August, 2019

Change the Weather History Date:

Wednesday, August 14, 2019

  Actual Average Record
Temperature  
Mean Temperature 68 °F 72 °F  
Max Temperature 78 °F 84 °F 102 °F (1937)
Min Temperature 58 °F 61 °F 42 °F (1929)
Degree Days  
Heating Degree Days 0 0  
Month to date heating degree days 0 0  
Since 1 June heating degree days 16 40  
Since 1 July heating degree days 0 5  
Cooling Degree Days 3 8  
Month to date cooling degree days 124 119  
Year to date cooling degree days 704 637  
Since 1 June cooling degree days 685 597  
Growing Degree Days 18 (Base 50)    
Moisture  
Dew Point 56 °F    
Average Humidity 67    
Maximum Humidity 87    
Minimum Humidity 47    
Precipitation  
Precipitation 0.00 in 0.09 in 0.83 in (1902)
Month to date precipitation 1.56 1.11  
Year to date precipitation 22.48 15.08  
Snow  
Snow 0.00 in - 0.00 in ()
Month to date snowfall 0.0  
Since 1 June snowfall 0.0  
Since 1 July snowfall 0.0  
Snow Depth 0.00 in    
Sea Level Pressure  
Sea Level Pressure 30.13 in    
Wind  
Wind Speed 7 mph (NW)    
Max Wind Speed 12 mph    
Max Gust Speed -    
Visibility 10 miles    
Events      
T = Trace of Precipitation, MM = Missing Value Source: NWS Daily Summary

Daily Weather History Graph

Daily Weather History Graph

Search for Another Location

Airport or City:

Astronomy

Aug. 14, 2019 Rise Set
Actual Time 6:35 AM CDT 8:37 PM CDT
Civil Twilight 6:03 AM CDT 9:08 PM CDT
Nautical Twilight 5:25 AM CDT 9:47 PM CDT
Astronomical Twilight 4:43 AM CDT 10:29 PM CDT
Moon 8:34 PM CDT (8/14) 5:30 AM CDT (8/14)
Length of Visible Light 15h 05m
Length of Day
14h 02m
Waxing Gibbous, 99% of the Moon is Illuminated
Aug 14
Waxing Gibbous
Aug 15
Full
Aug 23
Last Quarter
Aug 30
New
Sep 5
First Quarter

Hourly Weather History & Observations

Time (CDT) Temp. Dew Point Humidity Pressure Visibility Wind Dir Wind Speed Gust Speed Precip Events Conditions
12:53 AM 61.0 °F 55.0 °F 81% 30.11 in 10.0 mi WNW 9.2 mph - N/A   Clear
1:53 AM 60.1 °F 55.0 °F 83% 30.10 in 10.0 mi NW 9.2 mph - N/A   Clear
2:53 AM 59.0 °F 55.0 °F 87% 30.10 in 10.0 mi NW 11.5 mph - N/A   Clear
3:53 AM 59.0 °F 55.0 °F 87% 30.12 in 10.0 mi WNW 8.1 mph - N/A   Clear
4:53 AM 59.0 °F 55.0 °F 87% 30.13 in 10.0 mi NW 9.2 mph - N/A   Scattered Clouds
5:00 AM 59.0 °F 55.9 °F 90% 30.14 in 10.0 mi NW 9.2 mph - N/A   Mostly Cloudy
5:53 AM 61.0 °F 55.9 °F 83% 30.13 in 10.0 mi NW 8.1 mph - N/A   Overcast
6:53 AM 61.0 °F 55.9 °F 83% 30.15 in 10.0 mi WNW 6.9 mph - N/A   Overcast
7:21 AM 61.0 °F 55.9 °F 83% 30.16 in 10.0 mi WNW 6.9 mph - N/A   Overcast
7:53 AM 61.0 °F 55.9 °F 83% 30.15 in 10.0 mi WNW 8.1 mph - N/A   Overcast
8:02 AM 61.0 °F 55.9 °F 83% 30.16 in 10.0 mi WNW 9.2 mph - N/A   Overcast
8:53 AM 63.0 °F 57.0 °F 81% 30.16 in 10.0 mi WNW 11.5 mph - N/A   Mostly Cloudy
9:13 AM 64.0 °F 57.0 °F 78% 30.17 in 10.0 mi WNW 10.4 mph - N/A   Overcast
9:53 AM 64.9 °F 55.9 °F 73% 30.17 in 10.0 mi NW 9.2 mph - N/A   Scattered Clouds
10:09 AM 66.0 °F 57.0 °F 73% 30.18 in 10.0 mi NNW 8.1 mph - N/A   Mostly Cloudy
10:53 AM 70.0 °F 57.0 °F 63% 30.17 in 10.0 mi North 10.4 mph - N/A   Mostly Cloudy
11:36 AM 70.0 °F 55.9 °F 61% 30.17 in 10.0 mi NNW 8.1 mph - N/A   Mostly Cloudy
11:53 AM 71.1 °F 55.9 °F 59% 30.16 in 10.0 mi NNW 8.1 mph - N/A   Mostly Cloudy
12:53 PM 71.1 °F 55.9 °F 59% 30.14 in 10.0 mi North 9.2 mph - N/A   Overcast
1:53 PM 75.0 °F 57.0 °F 53% 30.13 in 10.0 mi Variable 4.6 mph - N/A   Mostly Cloudy
2:53 PM 73.0 °F 55.9 °F 55% 30.13 in 10.0 mi North 4.6 mph - N/A   Mostly Cloudy
3:53 PM 73.0 °F 55.9 °F 55% 30.11 in 10.0 mi Calm Calm - N/A   Mostly Cloudy
4:53 PM 75.9 °F 55.9 °F 50% 30.09 in 10.0 mi West 5.8 mph - N/A   Mostly Cloudy
5:53 PM 77.0 °F 55.0 °F 47% 30.08 in 10.0 mi WNW 6.9 mph - N/A   Scattered Clouds
6:53 PM 75.9 °F 55.0 °F 48% 30.08 in 10.0 mi NW 8.1 mph - N/A   Clear
7:53 PM 73.9 °F 57.0 °F 55% 30.07 in 10.0 mi North 4.6 mph - N/A   Clear
8:53 PM 69.1 °F 60.1 °F 73% 30.07 in 10.0 mi NNW 3.5 mph - N/A   Clear
9:53 PM 66.9 °F 57.9 °F 73% 30.08 in 10.0 mi Calm Calm - N/A   Clear
10:53 PM 64.9 °F 57.9 °F 78% 30.09 in 10.0 mi Calm Calm - N/A   Clear
11:53 PM 63.0 °F 57.9 °F 84% 30.09 in 10.0 mi South 3.5 mph - N/A   Clear